Location: Fauquembergues
(50.6005°N, 2.0987°E)
Time: 10:36:16
(UTC+00:00)

Meteor 1-20 Rocket - Pass Details

Date: 14 July 2020
Orbit: 820 x 891 km, 81.2° (Epoch: 05 August)

Event Time Altitude Azimuth Distance (km) Brightness Sun altitude
Exits shadow 00:58:22 27° 191° (SSW) 1,581 5.0 -16.5°
Maximum altitude 01:01:36 89° 282° (WNW) 860 4.2 -16.4°
Drops below altitude 10° 01:07:20 10° 12° (NNE) 2,519 8.0 -16.1°
Sets 01:09:48 0° 13° (NNE) 3,471 9.2 -16.0°
